When you browse on this site, cookies collect data to enhance your experience and personalize the content and advertising you see.
Visit our Privacy Policy to learn more. By continuing to use the site, you agree to this use of cookies and data.
  • In Latvia
  • List of Countries
  • For 7 days
  • Water Temperature
  • Weather Map
  • Weather Widgets
  • user-avatar
    Login

    Hourly Weather Korsakovo

    Today, 24 August, Saturday

    Time Temperature Precipitation Wind Pressure Humidity
    00:00 +15°C° 0 mm 2 mps 753 mmHg 86%
    01:00 +15°C° 0 mm 2 mps 753 mmHg 86%
    02:00 +14°C° 0 mm 2 mps 753 mmHg 87%
    03:00 +14°C° 0 mm 1 mps 753 mmHg 84%
    04:00 +14°C° 0 mm 1 mps 753 mmHg 85%
    05:00 +14°C° 0 mm 1 mps 753 mmHg 86%
    06:00 +13°C° 0 mm 1 mps 753 mmHg 86%
    07:00 +15°C° 0 mm 1 mps 753 mmHg 80%
    08:00 +18°C° 0 mm 1 mps 753 mmHg 74%
    09:00 +18°C° 0 mm 0 mps 753 mmHg 68%
    10:00 +21°C° 0 mm 1 mps 753 mmHg 63%
    11:00 +22°C° 0 mm 1 mps 752 mmHg 58%
    12:00 +23°C° 0 mm 1 mps 752 mmHg 52%
    13:00 +24°C° 0 mm 1 mps 752 mmHg 50%
    14:00 +24°C° 0 mm 2 mps 752 mmHg 48%
    15:00 +25°C° 0 mm 2 mps 751 mmHg 47%
    16:00 +24°C° 0 mm 2 mps 751 mmHg 52%
    17:00 +23°C° 0 mm 2 mps 751 mmHg 57%
    18:00 +23°C° 0 mm 2 mps 750 mmHg 62%
    19:00 +20°C° 0 mm 2 mps 750 mmHg 66%
    20:00 +19°C° 0 mm 2 mps 750 mmHg 69%
    21:00 +17°C° 0 mm 2 mps 750 mmHg 72%
    22:00 +17°C° 0 mm 2 mps 750 mmHg 74%
    23:00 +16°C° 0 mm 2 mps 750 mmHg 77%

    Tomorrow, 25 August, Sunday

    Time Temperature Precipitation Wind Pressure Humidity
    00:00 +16°C° 0 mm 2 mps 750 mmHg 79%
    01:00 +16°C° 0 mm 3 mps 750 mmHg 82%
    02:00 +14°C° 0 mm 3 mps 750 mmHg 86%
    03:00 +14°C° 0 mm 3 mps 750 mmHg 89%
    04:00 +14°C° 0 mm 3 mps 750 mmHg 91%
    05:00 +14°C° 0 mm 3 mps 750 mmHg 93%
    06:00 +13°C° 0 mm 3 mps 750 mmHg 94%
    07:00 +16°C° 0 mm 3 mps 750 mmHg 87%
    08:00 +17°C° 0 mm 3 mps 751 mmHg 80%
    09:00 +18°C° 0 mm 4 mps 751 mmHg 73%
    10:00 +19°C° 0 mm 4 mps 751 mmHg 68%
    11:00 +20°C° 0 mm 4 mps 751 mmHg 63%
    12:00 +21°C° 0 mm 5 mps 751 mmHg 58%
    13:00 +21°C° 0 mm 5 mps 751 mmHg 58%
    14:00 +21°C° 0 mm 4 mps 752 mmHg 57%
    15:00 +22°C° 0 mm 4 mps 752 mmHg 57%
    16:00 +21°C° 0 mm 4 mps 752 mmHg 61%
    17:00 +20°C° 0 mm 3 mps 752 mmHg 66%
    18:00 +20°C° 0 mm 3 mps 752 mmHg 70%
    19:00 +19°C° 0 mm 3 mps 752 mmHg 74%
    20:00 +17°C° 0 mm 2 mps 753 mmHg 78%
    21:00 +16°C° 0 mm 2 mps 753 mmHg 81%
    22:00 +15°C° 0 mm 2 mps 753 mmHg 84%
    23:00 +14°C° 0 mm 2 mps 754 mmHg 86%

    Day after tomorrow, 26 August, Monday

    Time Temperature Precipitation Wind Pressure Humidity
    00:00 +14°C° 0 mm 2 mps 754 mmHg 88%
    01:00 +13°C° 0 mm 2 mps 754 mmHg 89%
    02:00 +13°C° 0 mm 2 mps 754 mmHg 90%
    03:00 +12°C° 0 mm 1 mps 754 mmHg 91%
    04:00 +12°C° 0 mm 1 mps 754 mmHg 92%
    05:00 +12°C° 0 mm 1 mps 754 mmHg 92%
    06:00 +12°C° 0 mm 1 mps 754 mmHg 93%
    07:00 +12°C° 0 mm 0 mps 754 mmHg 86%
    08:00 +14°C° 0 mm 0 mps 754 mmHg 79%
    09:00 +16°C° 0 mm 0 mps 755 mmHg 73%
    10:00 +17°C° 0 mm 0 mps 754 mmHg 67%
    11:00 +18°C° 0 mm 0 mps 754 mmHg 62%
    12:00 +20°C° 0 mm 0 mps 754 mmHg 56%
    13:00 +22°C° 0 mm 1 mps 754 mmHg 54%
    14:00 +22°C° 0 mm 1 mps 754 mmHg 51%
    15:00 +23°C° 0 mm 2 mps 753 mmHg 49%
    16:00 +22°C° 0 mm 1 mps 753 mmHg 52%
    17:00 +22°C° 0 mm 1 mps 752 mmHg 56%
    18:00 +22°C° 0 mm 1 mps 752 mmHg 59%
    19:00 +20°C° 0 mm 1 mps 752 mmHg 62%
    20:00 +19°C° 0 mm 1 mps 751 mmHg 64%
    21:00 +16°C° 0 mm 1 mps 751 mmHg 67%
    22:00 +16°C° 0 mm 2 mps 751 mmHg 70%
    23:00 +16°C° 0 mm 2 mps 751 mmHg 72%

    27 August, Tuesday

    Time Temperature Precipitation Wind Pressure Humidity
    00:00 +15°C° 0 mm 2 mps 751 mmHg 75%
    01:00 +14°C° 0 mm 3 mps 750 mmHg 77%
    02:00 +14°C° 0 mm 3 mps 750 mmHg 79%
    03:00 +13°C° 0 mm 3 mps 749 mmHg 80%
    04:00 +13°C° 0 mm 3 mps 749 mmHg 82%
    05:00 +13°C° 0 mm 3 mps 749 mmHg 83%
    06:00 +13°C° 0 mm 3 mps 748 mmHg 85%
    07:00 +14°C° 0 mm 4 mps 748 mmHg 81%
    08:00 +16°C° 0 mm 5 mps 748 mmHg 77%
    09:00 +17°C° 0 mm 5 mps 747 mmHg 73%
    10:00 +19°C° 0 mm 5 mps 747 mmHg 70%
    11:00 +21°C° 0 mm 6 mps 747 mmHg 67%
    12:00 +22°C° 0 mm 6 mps 746 mmHg 64%
    13:00 +22°C° 0.5 mm 6 mps 746 mmHg 64%
    14:00 +22°C° 0.5 mm 6 mps 745 mmHg 65%
    15:00 +22°C° 0.5 mm 6 mps 745 mmHg 65%
    16:00 +21°C° 0.3 mm 6 mps 745 mmHg 67%
    17:00 +21°C° 0.3 mm 5 mps 744 mmHg 69%
    18:00 +20°C° 0.3 mm 5 mps 744 mmHg 71%
    19:00 +17°C° 0 mm 5 mps 744 mmHg 72%
    20:00 +16°C° 0 mm 5 mps 744 mmHg 73%
    21:00 +15°C° 0 mm 5 mps 745 mmHg 73%
    22:00 +13°C° 0 mm 5 mps 745 mmHg 75%
    23:00 +12°C° 0 mm 5 mps 746 mmHg 76%

    28 August, Wednesday

    Time Temperature Precipitation Wind Pressure Humidity
    00:00 +10°C° 0 mm 5 mps 746 mmHg 77%
    01:00 +9°C° 0 mm 5 mps 746 mmHg 78%
    02:00 +8°C° 0 mm 5 mps 746 mmHg 79%
    03:00 +7°C° 0 mm 5 mps 747 mmHg 79%
    04:00 +6°C° 0 mm 5 mps 747 mmHg 78%
    05:00 +5°C° 0 mm 4 mps 747 mmHg 77%
    06:00 +5°C° 0 mm 4 mps 748 mmHg 76%
    07:00 +6°C° 0 mm 5 mps 748 mmHg 73%
    08:00 +7°C° 0 mm 6 mps 748 mmHg 71%
    09:00 +8°C° 0 mm 7 mps 749 mmHg 68%
    10:00 +8°C° 0 mm 6 mps 749 mmHg 64%
    11:00 +9°C° 0 mm 6 mps 749 mmHg 61%
    12:00 +10°C° 0 mm 6 mps 749 mmHg 57%
    13:00 +10°C° 0 mm 6 mps 749 mmHg 56%
    14:00 +11°C° 0 mm 6 mps 749 mmHg 56%
    15:00 +13°C° 0 mm 6 mps 748 mmHg 55%
    16:00 +12°C° 0 mm 5 mps 748 mmHg 57%
    17:00 +12°C° 0 mm 5 mps 748 mmHg 59%
    18:00 +12°C° 0 mm 5 mps 748 mmHg 62%
    19:00 +10°C° 0 mm 4 mps 749 mmHg 66%
    20:00 +8°C° 0 mm 4 mps 749 mmHg 71%
    21:00 +8°C° 0 mm 3 mps 749 mmHg 76%
    22:00 +7°C° 0 mm 3 mps 749 mmHg 77%
    23:00 +5°C° 0 mm 3 mps 749 mmHg 78%

    29 August, Thursday

    Time Temperature Precipitation Wind Pressure Humidity
    00:00 +6°C° 0 mm 2 mps 749 mmHg 78%
    01:00 +4°C° 0 mm 3 mps 749 mmHg 79%
    02:00 +4°C° 0 mm 3 mps 749 mmHg 81%
    03:00 +4°C° 0 mm 3 mps 749 mmHg 82%
    04:00 +4°C° 0 mm 3 mps 749 mmHg 84%
    05:00 +4°C° 0 mm 3 mps 749 mmHg 86%
    06:00 +3°C° 0 mm 3 mps 749 mmHg 88%
    07:00 +5°C° 0 mm 4 mps 749 mmHg 81%
    08:00 +7°C° 0 mm 4 mps 749 mmHg 74%
    09:00 +8°C° 0 mm 5 mps 749 mmHg 67%
    10:00 +9°C° 0 mm 5 mps 749 mmHg 66%
    11:00 +9°C° 0 mm 6 mps 749 mmHg 65%
    12:00 +9°C° 0 mm 6 mps 749 mmHg 64%
    13:00 +10°C° 0 mm 6 mps 749 mmHg 62%
    14:00 +12°C° 0 mm 5 mps 748 mmHg 60%
    15:00 +12°C° 0 mm 5 mps 748 mmHg 58%
    16:00 +12°C° 0 mm 5 mps 749 mmHg 60%
    17:00 +12°C° 0 mm 4 mps 749 mmHg 62%
    18:00 +12°C° 0 mm 4 mps 749 mmHg 64%
    19:00 +10°C° 0 mm 4 mps 749 mmHg 68%
    20:00 +8°C° 0 mm 4 mps 749 mmHg 72%
    21:00 +8°C° 0 mm 3 mps 749 mmHg 76%
    22:00 +7°C° 0 mm 3 mps 750 mmHg 78%
    23:00 +7°C° 0 mm 3 mps 750 mmHg 80%
    Show more